Flag for South Africa Weather past 2 weeks in Port Elizabeth, South Africa

Now
59 °F

Clear.


Feels Like: 58 °F
Forecast: 51 / 73 °F
Wind: 7 mph from West

Location: Port Elizabeth Airport


UV Index: 3 (Moderate)

Visibility: 10 mi


Pressure: 30.18 "Hg

Humidity: 88%

Dew point: 55 °F

Location of Port ElizabethLocation

Historic Weather in Port Elizabeth

°F

Port Elizabeth temperature yesterday

Maximum temperature yesterday: 63 °F (at 10:00 AM)
Minimum temperature yesterday: 55 °F (at 4:00 AM)
Average temperature yesterday: 59 °F

Past Weeks' High & Low Weather Summary

 TemperatureHumidityPressure
High88 °F (Apr 14, 11:00 AM)94% (Apr 10, 12:00 AM)30.33 "Hg (Apr 10, 12:00 AM)
Low48 °F (Apr 12, 7:00 AM)29% (Apr 14, 11:00 AM)29.83 "Hg (Apr 22, 4:00 AM)
Average64 °F78%30.08 "Hg
* Reported Apr 9 6:00 PM — Apr 24 6:00 PM, Port Elizabeth, Weather by CustomWeather, © 2014

Note: Actual official high and low records may vary slightly from our data, if they occured in-between our weather recording intervals... More about our weather records

Advertising

Historic Weather Conditions — Data for Previous 24 hours

 ConditionsComfort  
Time TempWeatherWind HumidityBarometerVisibility
6:00 PM
Apr 24
59 °FPassing clouds.8 mph88%30.15 "HgN/A
5:00 PM63 °FPassing clouds.10 mph83%30.15 "HgN/A
4:00 PM64 °FPassing clouds.14 mph78%30.12 "HgN/A
3:00 PM64 °FBroken clouds.14 mph78%30.12 "HgN/A
2:00 PM64 °FScattered clouds.13 mph83%30.12 "HgN/A
1:00 PM63 °FPartly sunny.13 mph83%30.12 "HgN/A
12:00 PM63 °FLight rain. Partly sunny.8 mph83%30.15 "HgN/A
11:00 AM61 °FLight rain. Broken clouds.12 mph88%30.15 "HgN/A
10:00 AM59 °FLight rain. Partly sunny.9 mph88%30.15 "HgN/A
9:00 AM59 °FPartly sunny.10 mph94%30.15 "HgN/A
8:00 AM57 °FSprinkles. Partly sunny.10 mph94%30.15 "HgN/A
7:00 AM57 °FBroken clouds.7 mph94%30.12 "HgN/A
6:00 AM57 °FLight rain. Passing clouds.7 mph88%30.12 "HgN/A
5:00 AM57 °FClear.5 mph94%30.09 "Hg4 mi
4:00 AM57 °FPassing clouds.8 mph94%30.09 "Hg4 mi
3:00 AM57 °FPassing clouds.6 mph94%30.09 "Hg4 mi
2:00 AM59 °FRain. Partly cloudy.7 mph94%30.12 "Hg4 mi
1:00 AM57 °FRain. Partly cloudy.3 mph94%30.09 "Hg5 mi
12:00 AM59 °FRain. Overcast.9 mph88%30.09 "Hg4 mi
11:00 PM
Apr 23
57 °FClear.7 mph94%30.09 "Hg10 mi
10:00 PM57 °FPassing clouds.6 mph94%30.09 "HgN/A
9:00 PM59 °FLight rain. Passing clouds.12 mph88%30.09 "HgN/A
8:00 PM59 °FLight rain. Passing clouds.6 mph88%30.09 "HgN/A
7:00 PM61 °FLight rain. Passing clouds.6 mph83%30.07 "HgN/A
Weather by CustomWeather, © 2014

See weather overview